Время (UTC), дата Ветер
(°,м/с) 
Видим.   Явления Облачность Т
(°С)
Тd
(°С)
f(%) Тe
(°С)
Pmin
(гПа)
dP
(гПа)
Po
(мм)
O2
(г/м3)
Тmin Tmax R s Состояние
почвы
00 01.03.11 080 (В) 10{15}  10 км    8/3 600 м средняя 
[Sc|Ac trans]
-7.9 -13 67 -15  1031.1  0.5  766  319           
03 01.03.11 080 (В) 10  10 км    9/5 480 м средняя 
[Sc|Ac trans]
-9.4 -13.3 73 -17  1031.5  0.3  766  321           
06 01.03.11 080 (В) 10  10 км    9/5 630 м средняя 
[Sc|Ac trans]
-10.5 -14 76 -18  1032.5  767  323  -10.8         
09 01.03.11 070 (В) 10  10 км    9/0 средняя 
[Ac trans]
-7.7 -12.4 69 -14  1032.7  0.3  767  319           
12 01.03.11 070 (В) 10  10 км    6/0 средняя, верхняя 
[Ac trans|Ci fib]
-3.4 -10.8 57 -9  1031.4  -1.2  766  314           
15 01.03.11 080 (В) 10 км    8/0 средняя, верхняя 
[Ac trans|Ci fib]
-4.3 -10.8 61 -10  1031.4  766  315           
18 01.03.11 080 (В) 10 км    4/0 средняя 
[Ac trans]
-6 -10.2 72 -12  1032.1  0.6  767  317    -3.1       
21 01.03.11 080 (В) 10 км    8/0 средняя 
[Ac trans]
-6.9 -10.6 75 -13  1032.1  767  318           
00 02.03.11 080 (В) 10 км    6/0 средняя 
[Ac trans]
-8.6 -11.7 78 -14  1031.6  -0.6  766  320           
03 02.03.11 070 (В) 10 км    8/0 средняя 
[Ac trans]
-9.7 -13 77 -16  1031.9  0.3  767  321           
06 02.03.11 060 (СВ) 10 км    9/0 средняя 
[Ac trans]
-9 -13.3 71 -15  1032.9  767  321  -10         
09 02.03.11 050 (СВ) 10 км    9/0 средняя 
[Ac trans]
-6.5 -12.1 64 -11  1032.8  767  318           
12 02.03.11 060 (СВ) 10 км    9/0 средняя 
[Ac trans]
-4.5 -11.6 58 -9  1032.4  -0.3  767  315           
15 02.03.11 060 (СВ) 10 км    3/0 средняя 
[Ac trans]
-6.3 -11.7 65 -11  1033.2  0.7  768  318           
18 02.03.11 050 (СВ) 10 км    3/0 средняя 
[Ac trans]
-9.5 -12.9 76 -13  1034.6  1.3  769  322    -3.9       
21 02.03.11 060 (СВ) 10 км    1/0 средняя 
[Ac trans]
-10.9 -13.3 82 -15  1034.7  -0.1  768  324           
00 03.03.11 020 (С) 10 км    4/0 средняя 
[Ac trans]
-12 -14.4 82 -15  1035  0.4  769  325           
03 03.03.11 тихо ()   10 км    4/0 средняя 
[Ac trans]
-14.3 -16 87 -14  1034.8  -0.3  769  328           
06 03.03.11 150 (ЮВ) 10 км    3/0 средняя 
[Ac trans]
-9.3 -13.4 72 -9  1034.5  -0.1  768  322  -14.3         
09 03.03.11 250 (З) 10 км    3/0 средняя 
[Ac trans]
-4 -13.2 49 -6  1033  -1.3  767  315           
12 03.03.11 260 (З) 10 км    6/0 средняя, верхняя 
[Ac trans|Ci fib]
-2.1 -12.4 45 -5  1030.8  -2.1  766  312           
15 03.03.11 270 (З) 10 км    9/0 средняя 
[Ac trans]
-3.7 -9.3 65 -5  1029.8  -1.1  765  313           
18 03.03.11 360 (С) 10 км    9/3 300 м средняя 
[Sc|Ac trans]
-3.7 -8.8 68 -5  1029.8  765  313    -2.1       
21 03.03.11 350 (С) 10 км    5/3 300 м средняя 
[Sc|Ac trans]
-6.8 -9 84 -8  1029.8  -0.1  765  317           
00 04.03.11 320 (СЗ) 10 км    5/0 средняя 
[Ac trans]
-9 -10.9 86 -11  1029.6  -0.3  765  320           
03 04.03.11 310 (СЗ) 4000 м  дымка  6/0 средняя 
[Ac trans]
-9.2 -10.8 88 -11  1029.6  765  320           
06 04.03.11 290 (З) 4000 м  дымка  6/0 средняя, верхняя 
[Ac trans|Ci fib]
-6.9 -9.4 82 -10  1029.9  0.4  765  317  -10.5         
09 04.03.11 270 (З) 10 км    9/9 630 м 
[Sc]
-3.7 -8.4 70 -7  1027.5  -2.2  763  313           
12 04.03.11 260 (З) 10 км    9/6 600 м средняя 
[Sc|Ac trans]
-3.1 -7.3 73 -8  1025.2  -2.3  762  311           
15 04.03.11 270 (З) 10 км    8/3 600 м средняя 
[Sc|Ac trans]
-2.9 -5.6 82 -7  1022.7  -2.4  760  310           
18 04.03.11 260 (З) 10 км    9/4 200 м средняя 
[St|Ac trans]
-2.6 -4.5 87 -7  1021.6  -1.1  759  309    -2.9       
21 04.03.11 260 (З) 4000 м  дымка  9/5 210 м средняя 
[St|Ac trans]
-2.2 -3.4 91 -5  1020.3  -1.3  758  308           
00 05.03.11 260 (З) 4000 м  дымка  9/3 300 м средняя 
[St|Ac trans]
-3.4 -4.3 93 -6  1019.7  -0.7  758  310           
03 05.03.11 270 (З) 3000 м  дымка  8/3 300 м средняя 
[Sc|Ac trans]
-4.5 -5.3 94 -6  1018.8  -0.9  757  311           
06 05.03.11 270 (З) 4000 м  дымка  6/0 средняя, верхняя 
[Ac trans|Ci fib]
-2.7 -4.8 85 -6  1018.2  -0.5  757  308  -4.8         
09 05.03.11 270 (З) 10 км    8/0 средняя, верхняя 
[Ac trans|Ci fib]
+2.3 -4.7 60 -1  1015.8  -2.2  755  302           
12 05.03.11 260 (З) 10-15{16}  10 км    8/0 средняя, верхняя 
[Ac trans|Ci fib]
+3.5 -4.3 57 -1  1012.4  -3.4  752  300           
15 05.03.11 250 (З) 8-15{17}  10 км    6/0 средняя, верхняя 
[Ac trans|Ci fib]
+2.8 -3.1 65 -1  1010.5  -1.9  751  300           
18 05.03.11 250 (З) 12-17{17}  10 км    4/0 средняя, верхняя 
[Ac trans|Ci fib]
+2 -3.2 69 -3  1009.4  -1.1  750  300    +3.6       
21 05.03.11 260 (З) 14-19{20}  10 км    9/6 400 м средняя 
[Sc|Ac trans]
+0.9 -1.8 82 -5  1008.2  -1.2  749  301           
00 06.03.11 260 (З) 13-18{21}  10 км    9/9 270 м 
[St]
+0.2 -1.7 87 -5  1007.4  -0.9  749  302           
03 06.03.11 260 (З) 10-15{21}  4000 м  дымка  10/10 180 м 
[St]
+0 -1.1 92 -5  1006.1  -1.3  748  301           
06 06.03.11 250 (З) 10  4000 м  дымка  10/10 210 м 
[St]
+0.8 -0.4 92 -4  1005.6  -0.5  747  300  -0.1         
09 06.03.11 260 (З) 10  4000 м  дымка  10/10 240 м 
[St]
+0.7 -0.9 89 -4  1004.8  -0.8  747  300           
12 06.03.11 270 (З) 4000 м  дымка  10/6 240 м средняя 
[Sc|Ac und]
+0.8 -1 88 -2  1004.9  0.1  747  300           
15 06.03.11 260 (З) 2100 м  слаб. снег  10/8 120 м средняя 
[Sc|Ac und]
+0.2 -0.7 94 -2  1005.2  0.3  747  301           
18 06.03.11 200 (Ю) 1200 м  дымка{снег}  10/8 120 м средняя 
[Sc|Ac und]
+0.1 -0.5 96 -1  1005.8  0.6  747  301    +1.2  0.0     
21 06.03.11 340 (С) 4000 м  слаб. снег{туман}  10/8 210 м средняя 
[Sc|Ac und]
-0.5 -1.2 95 -3  1006.7  0.9  748  302           
00 07.03.11 330 (СЗ) 10 км  {снег, туман}  5/3 600 м средняя 
[Sc|Ac trans]
-2.4 -3.7 91 -5  1009.7  2.9  750  305           
03 07.03.11 320 (СЗ) 10 км    ясно 
-4.8 -5.6 94 -7  1012.2  2.4  752  309           
06 07.03.11 340 (С) 10 км    4/0 средняя, верхняя 
[Ac trans|Ci fib]
-3.2 -5.2 86 -4  1015.4  3.2  754  308  -5.3       
09 07.03.11 350 (С) 10 км    3/0 верхняя 
[Ci fib]
+0.5 -2.9 78 -2  1017.3  756  304           
12 07.03.11 340 (С) 10 км    5/5 630 м 
[Cu med, cong]
+1.2 -3.4 71 -2  1019.2  1.9  757  304           
15 07.03.11 340 (С) 10 км    3/3 600 м 
[Sc diur, vesp]
-1.5 -4.5 80 -5  1022  2.7  759  308           
18 07.03.11 010 (С) 10 км    3/0 средняя 
[Ac trans]
-2.7 -5.6 80 -6  1024.5  2.3  761  310    +2.1       
21 07.03.11 020 (С) 10 км    8/8 840 м 
[Sc]
-3.4 -6.6 79 -7  1026.3  1.8  763  312           
00 08.03.11 030 (СВ) 10 км    4/1 300 м средняя 
[Sc|Ac trans]
-5.2 -7.5 84 -8  1027.4  763  314           
03 08.03.11 030 (СВ) 10 км    4/0 средняя 
[Ac trans]
-6.1 -7.8 88 -9  1028.4  764  316           
06 08.03.11 050 (СВ) 10 км    4/0 средняя, верхняя 
[Ac trans|Ci fib]
-3.4 -6.6 79 -7  1029.8  1.4  765  313  -7.9         
09 08.03.11 030 (СВ) 10 км    6/6 660 м 
[Sc]
-1.7 -6.2 71 -5  1030  0.3  765  311           
12 08.03.11 060 (СВ) 10 км    8/8 900 м 
[Sc]
-0.4 -6.5 63 -4  1029.3  -0.6  765  309           
15 08.03.11 050 (СВ) 10 км    4/1 600 м средняя, верхняя 
[Sc|Ac trans|Ci fib]
-1.7 -6 73 -5  1029.6  0.2  765  311           
18 08.03.11 060 (СВ) 10 км    3/0 средняя 
[Ac trans]
-3.3 -6.8 77 -7  1030.5  0.8  766  313    +0.1       
21 08.03.11 070 (В) 10 км    3/0 средняя 
[Ac trans]
-3.5 -7.2 75 -8  1030  -0.5  765  313           
00 09.03.11 060 (СВ) 10 км    ясно 
-4 -7.4 77 -9  1029.3  -0.7  765  314           
03 09.03.11 070 (В) 10  10 км    3/0 верхняя 
[Ci fib]
-5.1 -7.1 86 -11  1029.1  -0.2  765  315           
06 09.03.11 080 (В) 10  10 км    3/0 верхняя 
[Ci fib]
-3.3 -6.4 79 -9  1029  765  313  -5.8         
09 09.03.11 080 (В) 11-15  10 км    ясно 
+0.9 -5.4 63 -4  1027.4  -1.5  763  307           
12 09.03.11 080 (В) 11-15{15}  10 км    5/5 700 м 
[Sc]
+3.5 -6.9 46 -1  1025.3  -2  762  304           
15 09.03.11 090 (В) 11-15{17}  10 км    3/0 верхняя 
[Ci fib]
+1.6 -6.1 57 -3  1024.9  -0.4  762  306           
18 09.03.11 070 (В) 13-16{17}  10 км    4/0 верхняя 
[Ci fib]
-2.1 -5.2 79 -8  1025.1  762  310    +3.6       
21 09.03.11 080 (В) 10-15{16}  10 км    4/0 верхняя 
[Ci fib]
-3.4 -5.7 84 -9  1023.9  -1.2  761  311           
00 10.03.11 080 (В) 10-15{16}  10 км    5/0 верхняя 
[Ci fib]
-4.6 -6.7 85 -11  1022.9  -1  760  312           
03 10.03.11 080 (В) 12-16{17}  10 км    5/0 верхняя 
[Ci fib]
-5.8 -7.7 86 -13  1021.9  -1.1  759  313           
06 10.03.11 080 (В) 12-17{17}  10 км    8/0 средняя, верхняя 
[Ac trans|Ci]
-3.8 -8.8 68 -10  1022.1  0.3  759  311  -6.1         
09 10.03.11 080 (В) 11-15{17}  10 км    6/0 средняя, верхняя 
[Ac trans|Ci fib]
+1.3 -8.6 48 -4  1021.1  -0.8  759  305           
12 10.03.11 080 (В) 11-15{18}  10 км    8/0 средняя, верхняя 
[Ac trans|Ci]
+3.3 -8 43 -1  1019.8  -1.3  758  303           
15 10.03.11 070 (В) 12-16{16}  10 км    9/1 600 м средняя 
[Sc|Ac trans]
-0.3 -6 65 -6  1020.4  0.4  758  306           
18 10.03.11 070 (В) 11-15{16}  10 км    9/3 600 м средняя 
[Sc|Ac trans]
-1.7 -5.4 76 -7  1021.3  0.8  759  308    +3.3       
21 10.03.11 080 (В) 9{15}  10 км    8/4 300 м средняя 
[Sc|Ac trans]
-3.3 -5.8 83 -9  1020.9  -0.5  758  310           
00 11.03.11 080 (В) 8{15}  10 км    9/3 600 м средняя 
[Sc|Ac trans]
-4 -6.7 81 -9  1020.4  -0.5  758  311           
03 11.03.11 070 (В) 10 км    9/5 480 м средняя 
[Sc|Ac trans]
-4.9 -7 85 -10  1020.4  758  312           
06 11.03.11 060 (СВ) 10 км    10/6 330 м средняя 
[Sc|Ac und]
-4.6 -6.8 85 -10  1021.2  0.8  759  312  -5.1         
09 11.03.11 080 (В) 10 км    10/5 480 м средняя 
[Sc|Ac und]
-2.2 -6.3 73 -7  1020.9  -0.2  759  309           
12 11.03.11 070 (В) 10 км    10/5 630 м средняя 
[Sc|Ac und]
-0.6 -5.9 67 -5  1020.2  -0.7  758  307           
15 11.03.11 090 (В) 10 км    10/5 660 м средняя 
[Sc|Ac und]
-0.8 -5 73 -4  1020.6  0.4  758  307           
18 11.03.11 080 (В) 10 км    10/10 630 м 
[Sc]
-1.4 -4.4 80 -4  1020.9  0.3  759  308    -0.4       
21 11.03.11 070 (В) 10 км    10/10 450 м 
[Sc]
-2.3 -5 82 -4  1021  0.1  759  309           
00 12.03.11 040 (СВ) 10 км    10/10 300 м 
[Sc]
-2.5 -4.8 84 -2  1021  759  309           
03 12.03.11 тихо ()   10 км    10/10 630 м 
[Sc]
-2.6 -4.7 85 -3  1021.7  0.7  759  309           
06 12.03.11 240 (ЮЗ) 10 км    10/8 750 м средняя 
[Sc|Ac und]
-1.2 -4.2 80 -4  1023.1  1.4  760  308  -2.6         
09 12.03.11 260 (З) 10 км  {снег}  9/9 500 м кучево-дожд. 
[Cb calv]
+0.7 -3.9 71 -2  1023.2  0.2  760  306           
12 12.03.11 260 (З) 1500 м  ливневой снег  10/6 630 м кучево-дожд., средняя 
[Cb calv|As op]
+0.6 -1.6 85 -4  1022.5  -0.7  760  306           
15 12.03.11 260 (З) 10 км  {ливн. осадки}  9/6 480 м средняя 
[Sc|Ac trans]
+1.4 -1.8 79 -2  1022.9  0.4  760  305           
18 12.03.11 270 (З) 4000 м  дымка{ливн. осадки}  6/4 300 м средняя 
[Sc|Ac trans]
+0.3 -1.5 88 -3  1024.3  1.3  761  307    +1.6  0.2     
21 12.03.11 260 (З) 2500 м  дымка  10/8 120 м средняя 
[Sc|Ac und]
+0.2 -0.4 96 -3  1025.3  762  307           
00 13.03.11 270 (З) 1500 м  дымка  10/10 100 м 
[Sc]
-0.3 -0.6 98 -2  1026.2  0.9  763  308           
03 13.03.11 250 (З) 0100 м  переохл. туман [диам. изморози 0 мм]  ?/?  
-1.4 -1.4 100 -3  1027.7  1.4  764  309           
06 13.03.11 230 (ЮЗ) 0600 м  туман  ?/?  
-0.9 -0.9 100 -2  1029.9  2.2  765  309  -1.7         
09 13.03.11 230 (ЮЗ) 3000 м  дымка{туман}  ясно 
+3.7 +0.3 78 +2  1031  1.3  766  305           
12 13.03.11 280 (З) 10 км    ясно 
+8.1 -1.6 50 +7  1030.9  766  300           
15 13.03.11 260 (З) 10 км    4/0 средняя 
[Ac trans]
+5.1 -1.6 62 +4  1031.8  0.8  767  304           
18 13.03.11 280 (З) 10 км    8/0 средняя, верхняя 
[Ac trans|Ci fib]
+3.4 -1.6 70 +2  1032.4  0.6  767  306    +8.4       
21 13.03.11 270 (З) 4000 м  дымка  4/0 верхняя 
[Ci fib]
+0.5 -1.8 85 1032.8  0.3  767  309           
00 14.03.11 тихо ()   4000 м  дымка  ясно 
-0.2 -1.5 91 -0  1032.7  -0.2  767  310           
03 14.03.11 200 (Ю) 4000 м  дымка  3/0 верхняя 
[Ci fib]
+0.3 -1.8 86 -1  1033.1  0.4  768  309           
06 14.03.11 200 (Ю) 10 км    3/0 верхняя 
[Ci fib]
+4.2 -3 59 +4  1034  1.1  768  305  -0.8         
09 14.03.11 170 (Ю) 10 км    3/0 верхняя 
[Ci fib]
+8.7 -3.4 42 +7  1033  -0.9  768  300           
12 14.03.11 170 (Ю) 10 км    6/0 верхняя 
[Ci]
+10.3 -1.7 43 +9  1031.4  -1.5  767  298           
15 14.03.11 160 (Ю) 10 км    5/0 средняя, верхняя 
[Ac trans|Ci fib]
+8.5 -1.4 50 +9  1030.9  -0.6  766  300           
18 14.03.11 140 (ЮВ) 10 км    8/0 средняя 
[Ac trans]
+6.7 -0.8 59 +7  1030.6  -0.3  766  301    +10.9       
21 14.03.11 090 (В) 10 км    8/0 средняя 
[Ac trans]
+4.5 -0.9 68 +4  1030  -0.7  765  304           
00 15.03.11 170 (Ю) 10 км    5/0 средняя 
[Ac trans]
+3.3 -1.9 69 +3  1029.1  -0.9  765  305           
03 15.03.11 тихо ()   10 км    ясно 
+0.9 -2.2 80 +1  1028.8  -0.4  764  307           
06 15.03.11 210 (ЮЗ) 10 км    4/0 средняя, верхняя 
[Ac trans|Ci fib]
+5.8 +0.1 67 +6  1028.4  -0.2  764  302  +0.7         
09 15.03.11 220 (ЮЗ) 10 км    8/0 средняя, верхняя 
[Ac trans|Ci fib]
+11.5 +1.8 51 +11  1026.7  -1.5  763  295           
12 15.03.11 270 (З) 10 км    8/0 средняя, верхняя 
[Ac trans|Ci fib]
+13.8 -0.2 38 +13  1024.9  -1.7  762  292           
15 15.03.11 280 (З) 10 км    4/0 средняя, верхняя 
[Ac trans|Ci fib]
+10.6 -1.5 43 +10  1024  -1  761  295           
18 15.03.11 270 (З) 10 км    4/0 средняя, верхняя 
[Ac trans|Ci fib]
+6.3 -1.5 57 +5  1023.9  -0.3  761  300    +14       
21 15.03.11 тихо ()   10 км    5/0 средняя, верхняя 
[Ac trans|Ci fib]
+4.5 -1 67 +5  1023.3  -0.6  761  302           
00 16.03.11 240 (ЮЗ) 10 км    6/0 средняя 
[Ac trans]
+2.7 -1.6 73 +2  1022.3  -1.1  760  303           
03 16.03.11 250 (З) 10 км    5/0 средняя, верхняя 
[Ac trans|Ci fib]
+4.1 +1.8 85 +2  1021.2  -1  759  301           
06 16.03.11 260 (З) 0900 м  туман  ?/?  
+3.7 +3.5 99 +2  1020.8  -0.4  759  301  +2.6         
09 16.03.11 250 (З) 3000 м  дымка{туман}  10/10 120 м 
[St]
+4 +3 93 +2  1020.5  -0.3  758  301           
12 16.03.11 320 (СЗ) 3000 м  дымка{туман}  10/10 150 м 
[St]
+4.5 +3.4 93 +4  1020.7  0.2  759  300           
15 16.03.11 010 (С) 4000 м  в посл. час ливневой дождь  10/8 180 м кучево-дожд., средняя 
[Cb calv|Ac und]
+2.4 +1.4 93 -1  1022.6  1.8  760  303           
18 16.03.11 030 (СВ) 10 км  {ливн. осадки}  10/5 840 м кучево-дожд., средняя 
[Cb calv|Ac und]
+1.3 -2 79 -1  1024.6  761  306    +5.6  0.0     
21 16.03.11 030 (СВ) 10 км    10/8 900 м средняя 
[Sc diur, vesp|Ac und]
+0.7 -4.1 70 -2  1025.3  0.7  762  307           
00 17.03.11 360 (С) 10 км    9/5 900 м средняя 
[Sc|Ac trans]
-0.7 -4.7 74 -3  1025.7  0.4  762  308           
03 17.03.11 360 (С) 10 км    6/0 средняя, верхняя 
[Ac trans|Ci fib]
-1.4 -5.1 76 -3  1025.5  -0.2  762  309           
06 17.03.11 020 (С) 10 км    9/4 600 м средняя 
[Sc|Ac trans]
+0.6 -5.9 62 1025.8  0.3  762  307  -1.6         
09 17.03.11 350 (С) 10 км    9/4 600 м средняя 
[Sc|Ac trans]
+1.2 -6.5 56 1025.2  -0.6  762  306           
12 17.03.11 340 (С) 10 км    9/3 600 м средняя 
[Sc|Ac trans]
+1.6 -6 57 1023.8  -1.3  761  305           
15 17.03.11 360 (С) 10 км    9/0 средняя 
[Ac trans]
+1.3 -5.8 59 +2  1023.6  -0.2  761  306           
18 17.03.11 360 (С) 10 км    10/8 360 м средняя 
[Sc|Ac und]
+0.2 -3.5 76 -2  1024.1  0.4  761  307    +2.1       
21 17.03.11 300 (СЗ) 10 км    8/0 средняя 
[Ac trans]
-1.3 -3.2 87 -1  1023.6  -0.5  761  308           
00 18.03.11 350 (С) 10 км    3/0 средняя 
[Ac trans]
-2.1 -3.5 90 -3  1023.2  -0.4  760  309           
03 18.03.11 030 (СВ) 4000 м  дымка  ясно 
-3.5 -4.8 91 -5  1023.1  -0.2  760  311           
06 18.03.11 020 (С) 4000 м  дымка  6/6 240 м 
[St]
-1.5 -2.9 90 -2  1024.3  1.3  761  309  -5.3         
09 18.03.11 050 (СВ) 10 км    8/8 400 м 
[Sc]
+1.1 -4.9 64 1023.1  -1.1  760  306           
12 18.03.11 360 (С) 10 км    8/8 750 м 
[Sc]
+2.6 -5.4 56 +1  1022.3  -0.8  760  304           
15 18.03.11 040 (СВ) 10 км    9/9 800 м 
[Sc]
+0.9 -3.7 71 -2  1022.8  0.5  760  306           
18 18.03.11 060 (СВ) 10 км    9/9 800 м 
[Sc]
-1.1 -3.6 83 -3  1023.5  0.6  761  308    +2.6       
21 18.03.11 080 (В) 10 км    8/0 средняя 
[Ac trans]
-3.4 -5.1 88 -6  1022.8  -0.8  760  311           
00 19.03.11 050 (СВ) 10 км    5/0 средняя 
[Ac trans]
-2.9 -4.8 87 -6  1022.3  -0.5  760  310           
03 19.03.11 050 (СВ) 10 км    ясно 
-4.8 -6.5 88 -8  1022.4  0.1  760  312           
06 19.03.11 080 (В) 10 км    4/0 средняя, верхняя 
[Ac trans|Ci fib]
-0.6 -4.1 77 -4  1022.6  0.3  760  307  -4.8         
09 19.03.11 080 (В) 10 км    4/3 600 м средняя 
[Cu hum|Ac trans]
+3.2 -4.3 58 1022.2  -0.3  760  303           
12 19.03.11 080 (В) 10 км    6/3 600 м средняя 
[Cu hum|Ac trans]
+4.2 -3.3 58 +2  1021.6  -0.5  759  302           
15 19.03.11 080 (В) 10 км    8/0 средняя, верхняя 
[Ac trans|Ci fib]
+3.4 -2.4 66 +1  1022.1  0.5  760  303           
18 19.03.11 050 (СВ) 10 км    9/5 900 м средняя 
[Sc|Ac und]
+1.8 -2.5 73 1023.2  760  305    +4.8       
21 19.03.11 070 (В) 10 км    9/5 960 м средняя 
[Sc|Ac trans]
+1.1 -2.9 75 -2  1023.5  0.3  761  306           
00 20.03.11 060 (СВ) 10 км    8/3 1000 м средняя 
[Sc|Ac trans]
-1.8 -3.9 86 -5  1024.1  0.5  761  309           
03 20.03.11 050 (СВ) 10 км    5/0 средняя 
[Ac trans]
-3 -4.3 91 -5  1025.5  1.3  762  311           
06 20.03.11 090 (В) 10 км    6/0 средняя, верхняя 
[Ac trans|Ci fib]
+0.7 -2.9 77 -2  1026  0.6  762  307  -3.5         
09 20.03.11 080 (В) 10 км    4/1 600 м средняя, верхняя 
[Cu med, cong|Ac trans|Ci fib]
+5.4 -2.9 55 +3  1026.5  0.7  763  302           
12 20.03.11 080 (В) 10 км    3/0 средняя, верхняя 
[Ac trans|Ci fib]
+7.3 -6.4 37 +6  1025.6  -0.8  762  300           
15 20.03.11 070 (В) 10 км    ясно 
+5.8 -3.6 51 +4  1025.9  0.2  762  301           
18 20.03.11 080 (В) 10 км    3/0 верхняя 
[Ci fib]
+1.9 -2.1 75 -1  1027.3  1.3  763  306    +7.5       
21 20.03.11 080 (В) 10 км    ясно 
+0.7 -2.1 82 -2  1027.5  0.1  764  307           
00 21.03.11 070 (В) 10 км    ясно 
-0.3 -3.1 81 -4  1026.5  -1  763  308           
03 21.03.11 080 (В) 10 км    3/0 верхняя 
[Ci fib]
-1.7 -3.6 87 -5  1026.9  0.3  763  310           
06 21.03.11 080 (В) 10 км    5/0 верхняя 
[Ci fib]
+0.5 -3.4 75 -4  1027.2  0.4  763  307  -1.8         
09 21.03.11 050 (СВ) 10 км    5/0 верхняя 
[Ci fib]
+5.5 -2.9 55 +3  1025.7  -1.3  762  301           
12 21.03.11 050 (СВ) 10 км    5/0 верхняя 
[Ci]
+7.7 -1.6 52 +5  1024.1  -1.5  761  298           
15 21.03.11 060 (СВ) 10 км    9/0 верхняя 
[Ci]
+5.3 -0.2 68 +3  1024.4  0.3  761  301           
18 21.03.11 070 (В) 10 км    10/0 средняя 
[Ac und]
+1.9 -1.4 79 -2  1025.6  1.1  762  305    +7.7       
21 21.03.11 050 (СВ) 10 км    10/3 300 м средняя 
[Sc|Ac und]
+0.2 -1.8 86 -2  1025.5  -0.2  762  307           
00 22.03.11 040 (СВ) 10 км    9/0 средняя, верхняя 
[Ac trans|Ci fib]
+0.4 -1.5 87 -3  1025.1  -0.4  762  307           
03 22.03.11 010 (С) 10 км    10/0 средняя 
[Ac und]
+0.2 -1.6 88 -2  1025.8  0.7  762  307           
06 22.03.11 040 (СВ) 10 км    9/5 800 м средняя 
[Sc|Ac trans]
+1.6 -1.8 78 -1  1026.7  763  306  +0.1         
09 22.03.11 040 (СВ) 10 км    9/5 600 м средняя 
[Sc|Ac trans]
+5.2 -2.3 58 +3  1026.5  -0.1  763  302           
12 22.03.11 020 (С) 10 км    9/4 600 м средняя 
[Sc|Ac trans]
+6.1 -2.3 55 +4  1025.6  -0.9  762  301           
15 22.03.11 030 (СВ) 10 км    6/3 600 м средняя, верхняя 
[Sc|Ac trans|Ci fib]
+5.4 -5 47 +4  1025.6  762  302           
18 22.03.11 360 (С) 10 км    3/0 средняя 
[Ac trans]
+2.3 -3.7 64 +2  1026.5  0.8  763  305    +6.2       
21 22.03.11 тихо ()   10 км    ясно 
-1.1 -4.3 79 -1  1025.6  -1  762  309           
00 23.03.11 230 (ЮЗ) 10 км    ясно 
-1.2 -3.9 82 -1  1024.5  -1.1  761  309           
03 23.03.11 230 (ЮЗ) 10 км    9/0 средняя 
[Ac trans]
+1.4 -3.2 71 -1  1022.7  -1.7  760  305           
06 23.03.11 240 (ЮЗ) 10 км    10/0 средняя 
[Ac und]
+2.6 -2.4 70 1021.5  -1.2  759  303  -2         
09 23.03.11 260 (З) 10 км    10/0 средняя 
[Ac und]
+6 -2.8 53 +3  1019.3  -2  758  299           
12 23.03.11 250 (З) 10 км    10/0 средняя 
[Ac und]
+7.3 -2.9 48 +5  1015.9  -3.4  755  297           
15 23.03.11 250 (З) 10 км    10/5 800 м средняя 
[Sc|Ac und]
+6.2 -1.1 60 +4  1014.3  -1.6  754  297           
18 23.03.11 280 (З) 4000 м  слаб. ливневой дождь  10/8 300 м кучево-дожд., средняя 
[Cb calv|Ac und]
+3.7 +2.1 89 +1  1014.3  -0.2  754  299    +7.4       
21 23.03.11 310 (СЗ) 4000 м  дымка{ливн. осадки}  10/5 210 м кучево-дожд., средняя 
[Cb calv|Ac und]
+3.4 +2.4 93 +3  1013.5  -0.8  753  299           
00 24.03.11 300 (СЗ) 10 км  {ливн. осадки}  9/4 600 м кучево-дожд., средняя 
[Cb calv|Ac trans]
+3.7 -0.2 76 +2  1013.9  0.4  753  300           
03 24.03.11 300 (СЗ) 10 км    4/0 средняя, верхняя 
[Ac trans|Ci fib]
+2 -2 75 1013.7  -0.2  753  302           
06 24.03.11 290 (З) 10 км    5/0 верхняя 
[Ci fib]
+3.8 -3 61 +1  1014.5  0.8  754  300  +1.9    0.7     
09 24.03.11 260 (З) 10 км    9/3 600 м средняя, верхняя 
[Sc|Ac trans|Ci fib]
+5.9 -3.9 49 +3  1013  -1.4  753  297           
12 24.03.11 260 (З) 12-16{16}  10 км    9/1 600 м средняя, верхняя 
[Sc|Ac trans|Ci fib]
+7.5 -3.6 45 +4  1009.4  -3.5  750  295           
15 24.03.11 270 (З) 8{17}  10 км    10/3 600 м средняя 
[Sc|Ac und]
+5.3 -1.5 61 +2  1007.5  -1.9  749  296           
18 24.03.11 270 (З) 7{17}  10 км    8/0 средняя 
[Ac trans]
+5.3 -0.7 65 +3  1006.9  -0.6  748  296    +7.8       
21 24.03.11 270 (З) 10 км  в посл. час ливневой дождь  8/5 700 м средняя 
[Frnb|Ac und]
+4.2 +0.5 77 +2  1006.5  -0.5  748  297           
00 25.03.11 280 (З) 10 км  {ливн. осадки, дождь}  9/3 300 м средняя 
[Sc|Ac trans]
+4.1 +0.4 77 +2  1005.4  -1.1  747  297           
03 25.03.11 320 (СЗ) 2000 м  ливневой снег  10/10 600 м кучево-дожд. 
[Cb calv|Ac trans]
+0.3 +0.8 100 +1  1005.4  0.2  747  300        равномерный
мокрый или
старый снег
100% 
06 25.03.11 280 (З) 10 км  {ливн. осадки, дождь}  5/5 240 м 
[Sc]
+1.7 +0.1 89 -1  1008.8  2.7  750  300  +0.2       
09 25.03.11 300 (СЗ) 10 км    5/5 540 м 
[Sc]
+4.8 -1.7 63 +1  1010.3  1.6  751  297           
12 25.03.11 300 (СЗ) 10-15{15}  10 км    5/5 800 м 
[Sc]
+5.9 -5.7 43 +2  1010.9  0.6  751  297           
15 25.03.11 280 (З) 7{15}  10 км    3/0 средняя 
[Ac trans]
+6.6 -7.1 37 +4  1011.2  0.4  752  296           
18 25.03.11 230 (ЮЗ) 5{15}  10 км    10/0 средняя 
[Ac und]
+4.7 -1.8 63 +3  1011.4  0.1  752  298    +7.1  0.0     
21 25.03.11 250 (З) 4000 м  слаб. ливневой дождь  10/6 900 м кучево-дожд., средняя 
[Cb calv|Ac und]
+6 +3 81 +3  1009.6  -1.7  750  295           
00 26.03.11 260 (З) 15-19{20}  10 км  слаб. ливневой дождь  10/8 900 м кучево-дожд., средняя 
[Cb calv|Ac und]
+7 +1.8 69 +3  1009.1  -0.5  750  294           
03 26.03.11 250 (З) 11-17{19}  10 км  в посл. час ливневой дождь  10/4 1080 м кучево-дожд., средняя 
[Cb calv|Ac und]
+6.9 +2.9 76 +3  1008.8  -0.3  750  294           
06 26.03.11 260 (З) 8{19}  10 км  {ливн. осадки}  10/4 600 м средняя 
[Sc|Ac und]
+7.4 +3.9 78 +5  1008.3  -0.5  749  293  +4.6       
09 26.03.11 260 (З) 11-15{18}  10 км    10/6 750 м кучево-дожд., средняя 
[Cb calv|Ac und]
+9 +4.3 72 +6  1008.2  749  292           
12 26.03.11 260 (З) 10-15{18}  10 км  {ливн. осадки}  10/5 800 м средняя 
[Sc|Ac und]
+10.1 +4.8 70 +8  1008.1  -0.1  749  290           
15 26.03.11 270 (З) 8{15}  10 км  {ливн. осадки}  9/4 600 м средняя 
[Sc|Ac trans]
+9.1 +5.1 76 +7  1008.5  0.4  750  291           
18 26.03.11 250 (З) 6{15}  10 км  {ливн. осадки}  10/5 700 м средняя 
[Sc|Ac und]
+9 +5.1 77 +7  1008.6  0.1  750  292    +10.5  0.0     
21 26.03.11 280 (З) 4000 м  в посл. час ливневой дождь  10/8 240 м кучево-дожд., средняя 
[Cb calv|Ac und]
+6.9 +5.2 89 +5  1010.2  1.5  751  294           
00 27.03.11 050 (СВ) 4000 м  слаб. ливневой дождь  10/8 150 м кучево-дожд., средняя 
[Cb calv|Ac und]
+0.9 +0 94 -2  1013.8  3.4  753  303           
03 27.03.11 050 (СВ) 0900 м  гроза с градом{ливн. осадки}  ?/?  
-1.9 -2.3 97 -6  1016.5  2.5  755  307           
06 27.03.11 070 (В) 10 км  слаб. ливневой снег  10/6 270 м кучево-дожд., средняя 
[Cb calv|Ac und]
-2.2 -2.8 96 -7  1018.9  2.4  757  308  -2.6       
09 27.03.11 080 (В) 10 км  {ливн. осадки}  10/5 330 м кучево-дожд., средняя 
[Cb calv|Ac und]
-1.2 -3.4 85 -6  1020.3  1.4  758  307           
12 27.03.11 070 (В) 10 км  {ливн. осадки}  10/5 500 м средняя 
[Sc|Ac und]
-0.9 -4.1 79 -5  1021.3  759  307           
15 27.03.11 080 (В) 10 км  слаб. снег  10/5 570 м средняя 
[Sc|Ac und]
-1.3 -5.1 75 -5  1022.7  1.4  760  308           
18 27.03.11 060 (СВ) 4000 м  слаб. снег  10/8 180 м средняя 
[Sc|Ac und]
-2.6 -4.5 87 -7  1024.8  1.9  761  310    -0.7     
21 27.03.11 060 (СВ) 10 км  {снег}  8/5 180 м средняя 
[Sc|Ac und]
-3.7 -4.8 92 -7  1025.3  0.5  762  312           
00 28.03.11 070 (В) 10 км  {снег}  8/4 300 м средняя 
[Sc|Ac trans]
-4.1 -6.1 86 -8  1025.4  0.1  762  312           
03 28.03.11 070 (В) 10 км    10/10 630 м 
[Sc]
-3.2 -5.1 87 -7  1026  0.6  762  311           
06 28.03.11 090 (В) 10 км    10/6 360 м средняя 
[Sc|Ac und]
-1.9 -4.2 84 -7  1026.1  0.1  762  310  -4.1    0.0     
09 28.03.11 090 (В) 10 км    10/6 400 м средняя 
[Sc|Ac und]
-0.9 -3.7 81 -6  1025.4  -0.6  762  308           
12 28.03.11 090 (В) 10 км    10/6 450 м средняя 
[Sc|Ac und]
-0.6 -3.5 81 -5  1024.2  -1.2  761  308           
15 28.03.11 090 (В) 10 км    10/6 360 м средняя 
[Sc|Ac und]
-1 -3.2 85 -5  1023.5  -0.7  761  308           
18 28.03.11 110 (В) 4000 м  слаб. снег  10/10 180 м 
[Sc]
-1.4 -2 96 -5  1023.5  761  308    -0.5       
21 28.03.11 110 (В) 1200 м  слаб. переохл. морось (гололёд){снег} [диам. гололёда 1 мм]  10/10 100 м 
[St]
-1.5 -1.7 99 -3  1022.2  -1.3  760  308           
00 29.03.11 090 (В) 0300 м  туман{снег, морось} [диам. гололёда 1 мм]  ?/?  
-1.3 -1.3 100 -2  1021.1  -1.1  759  307           
03 29.03.11 080 (В) 0500 м  туман [диам. гололёда 2 мм]  ?/?  
-0.9 -1 99 -3  1020.6  -0.5  758  307           
06 29.03.11 110 (В) 0400 м  туман  ?/?  
-0.1 -0.1 100 -2  1020.9  0.4  759  306  -1.5    0.0     
09 29.03.11 220 (ЮЗ) 4000 м  дымка{морось, туман}  10/10 150 м 
[St]
+2 +1.7 98 +1  1020.4  -0.5  758  303           
12 29.03.11 200 (Ю) 4000 м  слаб. морось{туман}  10/10 240 м 
[St]
+4.9 +3.6 91 +5  1019.2  -1.1  757  299           
15 29.03.11 тихо ()   0300 м  слаб. морось{туман}  ?/?  
+5.6 +5.4 99 +6  1018.2  -0.9  757  298           
18 29.03.11 240 (ЮЗ) 3000 м  слаб. ливневой дождь  10/8 180 м кучево-дожд., средняя 
[Cb calv|As op]
+5.7 +5 95 +5  1018.8  0.6  757  298    +5.8  0.0     
21 29.03.11 270 (З) 1500 м  слаб. дождь{ливн. осадки}  10/8 100 м средняя 
[Frnb|As op]
+5.4 +4.8 96 +6  1018.7  -0.1  757  298           
00 30.03.11 300 (СЗ) 1200 м  слаб. дождь{ливн. осадки}  10/8 100 м средняя 
[Frnb|As op]
+5.2 +4.7 97 +6  1018.7  757  299           
03 30.03.11 340 (С) 2500 м  дымка{дождь}  10/8 100 м средняя 
[Frnb|As op]
+4.3 +3.7 96 +3  1020  1.2  758  300           
06 30.03.11 350 (С) 4000 м  дымка{дождь, туман}  10/10 150 м 
[St]
+4.9 +3.8 92 +5  1021.7  1.6  759  300  +3.9       
09 30.03.11 230 (ЮЗ) 4000 м  дымка  8/8 360 м 
[Sc]
+8.8 +5.7 81 +9  1021.8  0.3  760  296           
12 30.03.11 230 (ЮЗ) 10 км    8/8 480 м 
[Sc]
+11.7 +3.2 56 +11  1021  -0.8  759  293           
15 30.03.11 250 (З) 10 км    4/0 средняя 
[Ac trans]
+10.9 +0.4 48 +11  1020.8  -0.2  759  294           
18 30.03.11 тихо ()   4000 м  дымка  6/0 средняя 
[Ac trans]
+7.3 +3.1 75 +7  1022  760  298    +12.3       
21 30.03.11 360 (С) 4000 м  дымка  6/0 средняя 
[Ac trans]
+5.2 +2 80 +6  1022  -0.1  760  300           
00 31.03.11 тихо ()   4000 м  дымка  5/0 средняя 
[Ac trans]
+3.1 +1.4 89 +3  1021.7  -0.3  759  302           
03 31.03.11 090 (В) 2500 м  дымка  6/0 средняя 
[Ac trans]
+2.7 +1.6 92 +2  1022  0.2  759  303           
06 31.03.11 050 (СВ) 4000 м  дымка  9/0 средняя, верхняя 
[Ac trans|Ci fib]
+8.7 +5 78 +9  1022.9  1.1  760  296  +2.6         
09 31.03.11 100 (В) 10 км    9/0 средняя 
[Ac trans]
+12.1 +2.7 53 +12  1023  0.2  760  293           
12 31.03.11 100 (В) 10 км    6/0 средняя, верхняя 
[Ac trans|Ci fib]
+14.1 +0 38 +15  1022.1  -0.7  760  291           
15 31.03.11 080 (В) 10 км    1/0 верхняя 
[Ci fib]
+12.9 +2.5 49 +13  1022.5  0.5  760  292           
18 31.03.11 050 (СВ) 10 км    3/0 верхняя 
[Ci fib]
+9.8 +1.5 56 +10  1024.2  1.6  761  296    +14.8       
21 31.03.11 010 (С) 10 км    6/6 300 м средняя 
[Sc|Ac trans]
+8.3 +1.7 63 +8  1025.5  1.2  762  298           
00 01.04.11 060 (СВ) 10 км    3/0 верхняя 
[Ci fib]
+3.8 +1.4 84 +2  1027.1  1.4  763  303           
03 01.04.11 050 (СВ) 10 км    5/0 средняя, верхняя 
[Ac trans|Ci fib]
+2.5 +0 84 1029  1.9  765  305           
Время (UTC), дата Ветер
(°,м/с) 
Видим.   Явления Облачность Т
(°С)
Тd
(°С)
f(%) Тe
(°С)
Pmin
(гПа)
dP
(гПа)
Po
(мм)
O2
(г/м3)
Тmin Tmax R s Состояние
почвы